{"data":{"norad_id":45388,"epoch":"2026-08-18T22:02:17.124864Z","epoch_age_seconds":2829403,"freshness":"OLD","line1":"1 45388U 20019AE  26230.91825376  .03862670  12174-4  64322-3 0  9995","line2":"2 45388  53.0209  25.3511 0010238 302.9055  57.1003 16.32379338356021","mean_motion":16.32379338,"eccentricity":0.0010238,"inclination_deg":53.0209,"raan_deg":25.3511,"arg_perigee_deg":302.9055,"mean_anomaly_deg":57.1003,"bstar":0.00064322,"rev_number":35602,"period_min":88.214789692468,"perigee_km":179.43282311337,"apogee_km":192.87386402085,"semimajor_km":6564.2903435671,"source":"CELESTRAK","updated_at":"2026-08-19T09:00:42.168031Z"}}